Year,Month,Day,Hour,Minute,Value (Times are PST for temperature in C)
2018,03,28,00,00,4.60
2018,03,28,00,01,4.60
2018,03,28,00,02,4.60
2018,03,28,00,03,4.60
2018,03,28,00,04,4.50
2018,03,28,00,05,4.50
2018,03,28,00,06,4.50
2018,03,28,00,07,4.50
2018,03,28,00,08,4.50
2018,03,28,00,09,4.50
2018,03,28,00,10,4.50
2018,03,28,00,11,4.50
2018,03,28,00,12,4.50
2018,03,28,00,13,4.50
2018,03,28,00,14,4.50
2018,03,28,00,15,4.50
2018,03,28,00,16,4.50
2018,03,28,00,17,4.50
2018,03,28,00,18,4.50
2018,03,28,00,19,4.50
2018,03,28,00,20,4.50
2018,03,28,00,21,4.50
2018,03,28,00,22,4.50
2018,03,28,00,23,4.50
2018,03,28,00,24,4.50
2018,03,28,00,25,4.50
2018,03,28,00,26,4.50
2018,03,28,00,27,4.50
2018,03,28,00,28,4.50
2018,03,28,00,29,4.50
2018,03,28,00,30,4.50
2018,03,28,00,31,4.50
2018,03,28,00,32,4.60
2018,03,28,00,33,4.60
2018,03,28,00,34,4.60
2018,03,28,00,35,4.60
2018,03,28,00,36,4.60
2018,03,28,00,37,4.60
2018,03,28,00,38,4.60
2018,03,28,00,39,4.60
2018,03,28,00,40,4.60
2018,03,28,00,41,4.60
2018,03,28,00,42,4.60
2018,03,28,00,43,4.60
2018,03,28,00,44,4.60
2018,03,28,00,45,4.60
2018,03,28,00,46,4.60
2018,03,28,00,47,4.60
2018,03,28,00,48,4.70
2018,03,28,00,49,4.70
2018,03,28,00,50,4.70
2018,03,28,00,51,4.70
2018,03,28,00,52,4.70
2018,03,28,00,53,4.80
2018,03,28,00,54,4.80
2018,03,28,00,55,4.80
2018,03,28,00,56,4.80
2018,03,28,00,57,4.80
2018,03,28,00,58,4.90
2018,03,28,00,59,4.90
2018,03,28,01,00,4.90
2018,03,28,01,01,4.90
2018,03,28,01,02,4.90
2018,03,28,01,03,5.00
2018,03,28,01,04,5.10
2018,03,28,01,05,5.10
2018,03,28,01,06,5.10
2018,03,28,01,07,5.10
2018,03,28,01,08,5.10
2018,03,28,01,09,5.10
2018,03,28,01,10,5.10
2018,03,28,01,11,5.10
2018,03,28,01,12,5.10
2018,03,28,01,13,5.10
2018,03,28,01,14,5.10
2018,03,28,01,15,5.10
2018,03,28,01,16,5.10
2018,03,28,01,17,5.10
2018,03,28,01,18,5.10
2018,03,28,01,19,5.10
2018,03,28,01,20,5.10
2018,03,28,01,21,5.10
2018,03,28,01,22,5.10
2018,03,28,01,23,5.10
2018,03,28,01,24,5.10
2018,03,28,01,25,5.10
2018,03,28,01,26,5.10
2018,03,28,01,27,5.10
2018,03,28,01,28,5.20
2018,03,28,01,29,5.20
2018,03,28,01,30,5.30
2018,03,28,01,31,5.30
2018,03,28,01,32,5.40
2018,03,28,01,33,5.40
2018,03,28,01,34,5.50
2018,03,28,01,35,5.50
2018,03,28,01,36,5.50
2018,03,28,01,37,5.60
2018,03,28,01,38,5.60
2018,03,28,01,39,5.60
2018,03,28,01,40,5.70
2018,03,28,01,41,5.60
2018,03,28,01,42,5.60
2018,03,28,01,43,5.60
2018,03,28,01,44,5.60
2018,03,28,01,45,5.60
2018,03,28,01,46,5.60
2018,03,28,01,47,5.70
2018,03,28,01,48,5.70
2018,03,28,01,49,5.70
2018,03,28,01,50,5.80
2018,03,28,01,51,5.90
2018,03,28,01,52,6.00
2018,03,28,01,53,6.00
2018,03,28,01,54,6.10
2018,03,28,01,55,6.10
2018,03,28,01,56,6.20
2018,03,28,01,57,6.20
2018,03,28,01,58,6.20
2018,03,28,01,59,6.20
2018,03,28,02,00,6.10
2018,03,28,02,01,6.10
2018,03,28,02,02,6.00
2018,03,28,02,03,6.00
2018,03,28,02,04,6.00
2018,03,28,02,05,5.90
2018,03,28,02,06,5.90
2018,03,28,02,07,5.80
2018,03,28,02,08,5.80
2018,03,28,02,09,5.70
2018,03,28,02,10,5.70
2018,03,28,02,11,5.70
2018,03,28,02,12,5.70
2018,03,28,02,13,5.70
2018,03,28,02,14,5.70
2018,03,28,02,15,5.70
2018,03,28,02,16,5.80
2018,03,28,02,17,5.80
2018,03,28,02,18,5.80
2018,03,28,02,19,5.80
2018,03,28,02,20,5.80
2018,03,28,02,21,5.80
2018,03,28,02,22,5.80
2018,03,28,02,23,5.80
2018,03,28,02,24,5.80
2018,03,28,02,25,5.70
2018,03,28,02,26,5.70
2018,03,28,02,27,5.70
2018,03,28,02,28,5.70
2018,03,28,02,29,5.70
2018,03,28,02,30,5.70
2018,03,28,02,31,5.70
2018,03,28,02,32,5.70
2018,03,28,02,33,5.70
2018,03,28,02,34,5.70
2018,03,28,02,35,5.70
2018,03,28,02,36,5.60
2018,03,28,02,37,5.60
2018,03,28,02,38,5.60
2018,03,28,02,39,5.50
2018,03,28,02,40,5.50
2018,03,28,02,41,5.50
2018,03,28,02,42,5.40
2018,03,28,02,43,5.40
2018,03,28,02,44,5.30
2018,03,28,02,45,5.30
2018,03,28,02,46,5.30
2018,03,28,02,47,5.30
2018,03,28,02,48,5.30
2018,03,28,02,49,5.30
2018,03,28,02,50,5.30
2018,03,28,02,51,5.30
2018,03,28,02,52,5.30
2018,03,28,02,53,5.20
2018,03,28,02,54,5.20
2018,03,28,02,55,5.20
2018,03,28,02,56,5.10
2018,03,28,02,57,5.10
2018,03,28,02,58,5.10
2018,03,28,02,59,5.10
2018,03,28,03,00,5.10
2018,03,28,03,01,5.10
2018,03,28,03,02,5.10
2018,03,28,03,03,5.10
2018,03,28,03,04,5.10
2018,03,28,03,05,5.10
2018,03,28,03,06,5.10
2018,03,28,03,07,5.10
2018,03,28,03,08,5.00
2018,03,28,03,09,4.90
2018,03,28,03,10,4.90
2018,03,28,03,11,4.90
2018,03,28,03,12,4.90
2018,03,28,03,13,5.10
2018,03,28,03,14,5.10
2018,03,28,03,15,5.20
2018,03,28,03,16,5.30
2018,03,28,03,17,5.30
2018,03,28,03,18,5.30
2018,03,28,03,19,5.30
2018,03,28,03,20,5.30
2018,03,28,03,21,5.30
2018,03,28,03,22,5.30
2018,03,28,03,23,5.30
2018,03,28,03,24,5.30
2018,03,28,03,25,5.30
2018,03,28,03,26,5.30
2018,03,28,03,27,5.30
2018,03,28,03,28,5.30
2018,03,28,03,29,5.30
2018,03,28,03,30,5.30
2018,03,28,03,31,5.30
2018,03,28,03,32,5.30
2018,03,28,03,33,5.30
2018,03,28,03,34,5.30
2018,03,28,03,35,5.30
2018,03,28,03,36,5.20
2018,03,28,03,37,5.20
2018,03,28,03,38,5.20
2018,03,28,03,39,5.10
2018,03,28,03,40,5.10
2018,03,28,03,41,5.10
2018,03,28,03,42,5.10
2018,03,28,03,43,5.10
2018,03,28,03,44,5.10
2018,03,28,03,45,5.10
2018,03,28,03,46,5.10
2018,03,28,03,47,5.10
2018,03,28,03,48,5.10
2018,03,28,03,49,5.10
2018,03,28,03,50,5.10
2018,03,28,03,51,5.10
2018,03,28,03,52,5.10
2018,03,28,03,53,5.10
2018,03,28,03,54,5.10
2018,03,28,03,55,5.10
2018,03,28,03,56,5.10
2018,03,28,03,57,5.00
2018,03,28,03,58,4.90
2018,03,28,03,59,4.90
2018,03,28,04,00,4.90
2018,03,28,04,01,4.90
2018,03,28,04,02,4.90
2018,03,28,04,03,4.90
2018,03,28,04,04,4.90
2018,03,28,04,05,5.00
2018,03,28,04,06,5.10
2018,03,28,04,07,5.10
2018,03,28,04,08,5.10
2018,03,28,04,09,5.10
2018,03,28,04,10,5.10
2018,03,28,04,11,5.10
2018,03,28,04,12,5.20
2018,03,28,04,13,5.10
2018,03,28,04,14,5.10
2018,03,28,04,15,5.10
2018,03,28,04,16,5.10
2018,03,28,04,17,5.20
2018,03,28,04,18,5.20
2018,03,28,04,19,5.20
2018,03,28,04,20,5.20
2018,03,28,04,21,5.10
2018,03,28,04,22,5.10
2018,03,28,04,23,5.20
2018,03,28,04,24,5.20
2018,03,28,04,25,5.20
2018,03,28,04,26,5.20
2018,03,28,04,27,5.10
2018,03,28,04,28,5.10
2018,03,28,04,29,5.10
2018,03,28,04,30,5.10
2018,03,28,04,31,5.10
2018,03,28,04,32,5.10
2018,03,28,04,33,5.10
2018,03,28,04,34,4.90
2018,03,28,04,35,4.90
2018,03,28,04,36,4.90
2018,03,28,04,37,4.90
2018,03,28,04,38,4.90
2018,03,28,04,39,4.90
2018,03,28,04,40,4.90
2018,03,28,04,41,4.90
2018,03,28,04,42,4.90
2018,03,28,04,43,4.90
2018,03,28,04,44,4.90
2018,03,28,04,45,4.90
2018,03,28,04,46,4.90
2018,03,28,04,47,4.90
2018,03,28,04,48,4.90
2018,03,28,04,49,4.90
2018,03,28,04,50,4.90
2018,03,28,04,51,4.90
2018,03,28,04,52,4.90
2018,03,28,04,53,4.90
2018,03,28,04,54,4.90
2018,03,28,04,55,4.90
2018,03,28,04,56,4.90
2018,03,28,04,57,4.90
2018,03,28,04,58,4.90
2018,03,28,04,59,4.90
2018,03,28,05,00,4.90
2018,03,28,05,01,4.90
2018,03,28,05,02,4.90
2018,03,28,05,03,4.90
2018,03,28,05,04,4.90
2018,03,28,05,05,4.90
2018,03,28,05,06,4.90
2018,03,28,05,07,4.90
2018,03,28,05,08,4.90
2018,03,28,05,09,4.90
2018,03,28,05,10,4.90
2018,03,28,05,11,4.90
2018,03,28,05,12,4.90
2018,03,28,05,13,4.90
2018,03,28,05,14,4.90
2018,03,28,05,15,4.90
2018,03,28,05,16,4.90
2018,03,28,05,17,4.90
2018,03,28,05,18,4.90
2018,03,28,05,19,4.90
2018,03,28,05,20,4.90
2018,03,28,05,21,4.90
2018,03,28,05,22,4.90
2018,03,28,05,23,4.90
2018,03,28,05,24,4.90
2018,03,28,05,25,4.90
2018,03,28,05,26,4.90
2018,03,28,05,27,4.90
2018,03,28,05,28,4.90
2018,03,28,05,29,4.90
2018,03,28,05,30,4.90
2018,03,28,05,31,4.90
2018,03,28,05,32,4.90
2018,03,28,05,33,4.90
2018,03,28,05,34,4.90
2018,03,28,05,35,4.90
2018,03,28,05,36,4.90
2018,03,28,05,37,4.90
2018,03,28,05,38,4.90
2018,03,28,05,39,4.90
2018,03,28,05,40,4.90
2018,03,28,05,41,4.90
2018,03,28,05,42,4.90
2018,03,28,05,43,4.90
2018,03,28,05,44,4.90
2018,03,28,05,45,4.90
2018,03,28,05,46,4.90
2018,03,28,05,47,4.90
2018,03,28,05,48,4.90
2018,03,28,05,49,4.90
2018,03,28,05,50,4.90
2018,03,28,05,51,4.80
2018,03,28,05,52,4.80
2018,03,28,05,53,4.80
2018,03,28,05,54,4.80
2018,03,28,05,55,4.80
2018,03,28,05,56,4.80
2018,03,28,05,57,4.80
2018,03,28,05,58,4.80
2018,03,28,05,59,4.80
2018,03,28,06,00,4.80
2018,03,28,06,01,4.80
2018,03,28,06,02,4.80
2018,03,28,06,03,4.80
2018,03,28,06,04,4.70
2018,03,28,06,05,4.70
2018,03,28,06,06,4.70
2018,03,28,06,07,4.70
2018,03,28,06,08,4.70
2018,03,28,06,09,4.70
2018,03,28,06,10,4.70
2018,03,28,06,11,4.70
2018,03,28,06,12,4.70
2018,03,28,06,13,4.70
2018,03,28,06,14,4.70
2018,03,28,06,15,4.70
2018,03,28,06,16,4.70
2018,03,28,06,17,4.70
2018,03,28,06,18,4.70
2018,03,28,06,19,4.70
2018,03,28,06,20,4.70
2018,03,28,06,21,4.70
2018,03,28,06,22,4.70
2018,03,28,06,23,4.70
2018,03,28,06,24,4.70
2018,03,28,06,25,4.70
2018,03,28,06,26,4.70
2018,03,28,06,27,4.70
2018,03,28,06,28,4.70
2018,03,28,06,29,4.70
2018,03,28,06,30,4.70
2018,03,28,06,31,4.70
2018,03,28,06,32,4.70
2018,03,28,06,33,4.70
2018,03,28,06,34,4.70
2018,03,28,06,35,4.70
2018,03,28,06,36,4.70
2018,03,28,06,37,4.70
2018,03,28,06,38,4.70
2018,03,28,06,39,4.70
2018,03,28,06,40,4.70
2018,03,28,06,41,4.70
2018,03,28,06,42,4.70
2018,03,28,06,43,4.70
2018,03,28,06,44,4.70
2018,03,28,06,45,4.70
2018,03,28,06,46,4.80
2018,03,28,06,47,4.80
2018,03,28,06,48,4.80
2018,03,28,06,49,4.70
2018,03,28,06,50,4.70
2018,03,28,06,51,4.70
2018,03,28,06,52,4.70
2018,03,28,06,53,4.70
2018,03,28,06,54,4.70
2018,03,28,06,55,4.70
2018,03,28,06,56,4.70
2018,03,28,06,57,4.70
2018,03,28,06,58,4.70
2018,03,28,06,59,4.70
2018,03,28,07,00,4.70
2018,03,28,07,01,4.70
2018,03,28,07,02,4.70
2018,03,28,07,03,4.70
2018,03,28,07,04,4.70
2018,03,28,07,05,4.70
2018,03,28,07,06,4.70
2018,03,28,07,07,4.70
2018,03,28,07,08,4.70
2018,03,28,07,09,4.70
2018,03,28,07,10,4.70
2018,03,28,07,11,4.70
2018,03,28,07,12,4.60
2018,03,28,07,13,4.60
2018,03,28,07,14,4.60
2018,03,28,07,15,4.60
2018,03,28,07,16,4.60
2018,03,28,07,17,4.60
2018,03,28,07,18,4.60
2018,03,28,07,19,4.60
2018,03,28,07,20,4.60
2018,03,28,07,21,4.60
2018,03,28,07,22,4.60
2018,03,28,07,23,4.60
2018,03,28,07,24,4.60
2018,03,28,07,25,4.60
2018,03,28,07,26,4.60
2018,03,28,07,27,4.60
2018,03,28,07,28,4.60
2018,03,28,07,29,4.60
2018,03,28,07,30,4.60
2018,03,28,07,31,4.60
2018,03,28,07,32,4.60
2018,03,28,07,33,4.60
2018,03,28,07,34,4.60
2018,03,28,07,35,4.60
2018,03,28,07,36,4.60
2018,03,28,07,37,4.60
2018,03,28,07,38,4.60
2018,03,28,07,39,4.60
2018,03,28,07,40,4.60
2018,03,28,07,41,4.60
2018,03,28,07,42,4.60
2018,03,28,07,43,4.60
2018,03,28,07,44,4.60
2018,03,28,07,45,4.60
2018,03,28,07,46,4.60
2018,03,28,07,47,4.70
2018,03,28,07,48,4.70
2018,03,28,07,49,4.70
2018,03,28,07,50,4.70
2018,03,28,07,51,4.70
2018,03,28,07,52,4.70
2018,03,28,07,53,4.70
2018,03,28,07,54,4.70
2018,03,28,07,55,4.70
2018,03,28,07,56,4.70
2018,03,28,07,57,4.80
2018,03,28,07,58,4.80
2018,03,28,07,59,4.80
2018,03,28,08,00,4.80
2018,03,28,08,01,4.80
2018,03,28,08,02,4.90
2018,03,28,08,03,4.90
2018,03,28,08,04,4.90
2018,03,28,08,05,4.90
2018,03,28,08,06,4.90
2018,03,28,08,07,4.90
2018,03,28,08,08,4.90
2018,03,28,08,09,4.90
2018,03,28,08,10,5.00
2018,03,28,08,11,5.10
2018,03,28,08,12,5.10
2018,03,28,08,13,5.10
2018,03,28,08,14,5.10
2018,03,28,08,15,5.10
2018,03,28,08,16,5.10
2018,03,28,08,17,5.10
2018,03,28,08,18,5.20
2018,03,28,08,19,5.20
2018,03,28,08,20,5.20
2018,03,28,08,21,5.30
2018,03,28,08,22,5.30
2018,03,28,08,23,5.30
2018,03,28,08,24,5.30
2018,03,28,08,25,5.30
2018,03,28,08,26,5.30
2018,03,28,08,27,5.40
2018,03,28,08,28,5.40
2018,03,28,08,29,5.50
2018,03,28,08,30,5.50
2018,03,28,08,31,5.50
2018,03,28,08,32,5.60
2018,03,28,08,33,5.60
2018,03,28,08,34,5.70
2018,03,28,08,35,5.70
2018,03,28,08,36,5.70
2018,03,28,08,37,5.70
2018,03,28,08,38,5.80
2018,03,28,08,39,5.80
2018,03,28,08,40,5.90
2018,03,28,08,41,5.90
2018,03,28,08,42,6.00
2018,03,28,08,43,6.00
2018,03,28,08,44,6.00
2018,03,28,08,45,6.10
2018,03,28,08,46,6.10
2018,03,28,08,47,6.20
2018,03,28,08,48,6.20
2018,03,28,08,49,6.20
2018,03,28,08,50,6.20
2018,03,28,08,51,6.30
2018,03,28,08,52,6.30
2018,03,28,08,53,6.30
2018,03,28,08,54,6.40
2018,03,28,08,55,6.40
2018,03,28,08,56,6.40
2018,03,28,08,57,6.50
2018,03,28,08,58,6.60
2018,03,28,08,59,6.60
2018,03,28,09,00,6.60
2018,03,28,09,01,6.70
2018,03,28,09,02,6.70
2018,03,28,09,03,6.70
2018,03,28,09,04,6.80
2018,03,28,09,05,6.80
2018,03,28,09,06,6.80
2018,03,28,09,07,6.80
2018,03,28,09,08,6.90
2018,03,28,09,09,6.90
2018,03,28,09,10,7.00
2018,03,28,09,11,7.00
2018,03,28,09,12,7.10
2018,03,28,09,13,7.10
2018,03,28,09,14,7.10
2018,03,28,09,15,7.20
2018,03,28,09,16,7.30
2018,03,28,09,17,7.30
2018,03,28,09,18,7.30
2018,03,28,09,19,7.30
2018,03,28,09,20,7.30
2018,03,28,09,21,7.30
2018,03,28,09,22,7.40
2018,03,28,09,23,7.40
2018,03,28,09,24,7.40
2018,03,28,09,25,7.40
2018,03,28,09,26,7.50
2018,03,28,09,27,7.50
2018,03,28,09,28,7.60
2018,03,28,09,29,7.60
2018,03,28,09,30,7.70
2018,03,28,09,31,7.70
2018,03,28,09,32,7.80
2018,03,28,09,33,7.80
2018,03,28,09,34,7.80
2018,03,28,09,35,7.80
2018,03,28,09,36,7.80
2018,03,28,09,37,7.80
2018,03,28,09,38,7.80
2018,03,28,09,39,7.80
2018,03,28,09,40,7.80
2018,03,28,09,41,7.80
2018,03,28,09,42,7.80
2018,03,28,09,43,7.80
2018,03,28,09,44,7.80
2018,03,28,09,45,7.80
2018,03,28,09,46,7.80
2018,03,28,09,47,7.80
2018,03,28,09,48,7.90
2018,03,28,09,49,7.90
2018,03,28,09,50,7.90
2018,03,28,09,51,7.90
2018,03,28,09,52,7.80
2018,03,28,09,53,7.80
2018,03,28,09,54,7.80
2018,03,28,09,55,7.80
2018,03,28,09,56,7.80
2018,03,28,09,57,7.80
2018,03,28,09,58,7.80
2018,03,28,09,59,7.90
2018,03,28,10,00,7.90
2018,03,28,10,01,7.90
2018,03,28,10,02,7.90
2018,03,28,10,03,7.90
2018,03,28,10,04,7.90
2018,03,28,10,05,7.90
2018,03,28,10,06,7.90
2018,03,28,10,07,7.90
2018,03,28,10,08,7.80
2018,03,28,10,09,7.80
2018,03,28,10,10,7.80
2018,03,28,10,11,7.80
2018,03,28,10,12,7.80
2018,03,28,10,13,7.80
2018,03,28,10,14,7.80
2018,03,28,10,15,7.80
2018,03,28,10,16,7.80
2018,03,28,10,17,7.80
2018,03,28,10,18,7.80
2018,03,28,10,19,7.80
2018,03,28,10,20,7.80
2018,03,28,10,21,7.90
2018,03,28,10,22,7.90
2018,03,28,10,23,7.90
2018,03,28,10,24,7.80
2018,03,28,10,25,7.80
2018,03,28,10,26,7.80
2018,03,28,10,27,7.80
2018,03,28,10,28,7.80
2018,03,28,10,29,7.80
2018,03,28,10,30,7.90
2018,03,28,10,31,7.90
2018,03,28,10,32,7.90
2018,03,28,10,33,7.90
2018,03,28,10,34,7.90
2018,03,28,10,35,8.00
2018,03,28,10,36,8.00
2018,03,28,10,37,8.00
2018,03,28,10,38,8.00
2018,03,28,10,39,8.00
2018,03,28,10,40,8.00
2018,03,28,10,41,8.00
2018,03,28,10,42,8.10
2018,03,28,10,43,8.10
2018,03,28,10,44,8.10
2018,03,28,10,45,8.10
2018,03,28,10,46,8.10
2018,03,28,10,47,8.10
2018,03,28,10,48,8.10
2018,03,28,10,49,8.10
2018,03,28,10,50,8.10
2018,03,28,10,51,8.10
2018,03,28,10,52,8.10
2018,03,28,10,53,8.10
2018,03,28,10,54,8.10
2018,03,28,10,55,8.10
2018,03,28,10,56,8.10
2018,03,28,10,57,8.10
2018,03,28,10,58,8.10
2018,03,28,10,59,8.10
2018,03,28,11,00,8.10
2018,03,28,11,01,8.20
2018,03,28,11,02,8.20
2018,03,28,11,03,8.20
2018,03,28,11,04,8.20
2018,03,28,11,05,8.20
2018,03,28,11,06,8.20
2018,03,28,11,07,8.20
2018,03,28,11,08,8.20
2018,03,28,11,09,8.20
2018,03,28,11,10,8.20
2018,03,28,11,11,8.20
2018,03,28,11,12,8.20
2018,03,28,11,13,8.20
2018,03,28,11,14,8.30
2018,03,28,11,15,8.30
2018,03,28,11,16,8.30
2018,03,28,11,17,8.30
2018,03,28,11,18,8.30
2018,03,28,11,19,8.30
2018,03,28,11,20,8.30
2018,03,28,11,21,8.30
2018,03,28,11,22,8.30
2018,03,28,11,23,8.30
2018,03,28,11,24,8.30
2018,03,28,11,25,8.20
2018,03,28,11,26,8.20
2018,03,28,11,27,8.20
2018,03,28,11,28,8.20
2018,03,28,11,29,8.20
2018,03,28,11,30,8.20
2018,03,28,11,31,8.20
2018,03,28,11,32,8.20
2018,03,28,11,33,8.20
2018,03,28,11,34,8.20
2018,03,28,11,35,8.20
2018,03,28,11,36,8.20
2018,03,28,11,37,8.30
2018,03,28,11,38,8.30
2018,03,28,11,39,8.30
2018,03,28,11,40,8.40
2018,03,28,11,41,8.40
2018,03,28,11,42,8.50
2018,03,28,11,43,8.60
2018,03,28,11,44,8.60
2018,03,28,11,45,8.60
2018,03,28,11,46,8.60
2018,03,28,11,47,8.60
2018,03,28,11,48,8.60
2018,03,28,11,49,8.60
2018,03,28,11,50,8.60
2018,03,28,11,51,8.50
2018,03,28,11,52,8.50
2018,03,28,11,53,8.50
2018,03,28,11,54,8.50
2018,03,28,11,55,8.60
2018,03,28,11,56,8.60
2018,03,28,11,57,8.60
2018,03,28,11,58,8.70
2018,03,28,11,59,8.70
2018,03,28,12,00,8.70
2018,03,28,12,01,8.80
2018,03,28,12,02,8.80
2018,03,28,12,03,8.80
2018,03,28,12,04,8.80
2018,03,28,12,05,8.90
2018,03,28,12,06,8.90
2018,03,28,12,07,9.00
2018,03,28,12,08,9.00
2018,03,28,12,09,9.00
2018,03,28,12,10,9.10
2018,03,28,12,11,9.20
2018,03,28,12,12,9.20
2018,03,28,12,13,9.30
2018,03,28,12,14,9.40
2018,03,28,12,15,9.50
2018,03,28,12,16,9.60
2018,03,28,12,17,9.70
2018,03,28,12,18,9.70
2018,03,28,12,19,9.70
2018,03,28,12,20,9.70
2018,03,28,12,21,9.70
2018,03,28,12,22,9.70
2018,03,28,12,23,9.70
2018,03,28,12,24,9.70
2018,03,28,12,25,9.70
2018,03,28,12,26,9.80
2018,03,28,12,27,9.90
2018,03,28,12,28,9.90
2018,03,28,12,29,9.90
2018,03,28,12,30,9.90
2018,03,28,12,31,9.90
2018,03,28,12,32,10.00
2018,03,28,12,33,10.10
2018,03,28,12,34,10.10
2018,03,28,12,35,10.10
2018,03,28,12,36,10.30
2018,03,28,12,37,10.30
2018,03,28,12,38,10.30
2018,03,28,12,39,10.30
2018,03,28,12,40,10.30
2018,03,28,12,41,10.30
2018,03,28,12,42,10.40
2018,03,28,12,43,10.40
2018,03,28,12,44,10.30
2018,03,28,12,45,10.30
2018,03,28,12,46,10.20
2018,03,28,12,47,10.20
2018,03,28,12,48,10.20
2018,03,28,12,49,10.10
2018,03,28,12,50,10.20
2018,03,28,12,51,10.20
2018,03,28,12,52,10.30
2018,03,28,12,53,10.40
2018,03,28,12,54,10.60
2018,03,28,12,55,10.60
2018,03,28,12,56,10.50
2018,03,28,12,57,10.40
2018,03,28,12,58,10.40
2018,03,28,12,59,10.40
2018,03,28,13,00,10.40
2018,03,28,13,01,10.30
2018,03,28,13,02,10.30
2018,03,28,13,03,10.40
2018,03,28,13,04,10.50
2018,03,28,13,05,10.60
2018,03,28,13,06,10.70
2018,03,28,13,07,10.80
2018,03,28,13,08,10.80
2018,03,28,13,09,10.80
2018,03,28,13,10,10.80
2018,03,28,13,11,10.80
2018,03,28,13,12,10.80
2018,03,28,13,13,10.70
2018,03,28,13,14,10.60
2018,03,28,13,15,10.50
2018,03,28,13,16,10.40
2018,03,28,13,17,10.40
2018,03,28,13,18,10.40
2018,03,28,13,19,10.40
2018,03,28,13,20,10.40
2018,03,28,13,21,10.40
2018,03,28,13,22,10.40
2018,03,28,13,23,10.40
2018,03,28,13,24,10.40
2018,03,28,13,25,10.40
2018,03,28,13,26,10.50
2018,03,28,13,27,10.50
2018,03,28,13,28,10.40
2018,03,28,13,29,10.40
2018,03,28,13,30,10.40
2018,03,28,13,31,10.40
2018,03,28,13,32,10.40
2018,03,28,13,33,10.40
2018,03,28,13,34,10.40
2018,03,28,13,35,10.40
2018,03,28,13,36,10.40
2018,03,28,13,37,10.40
2018,03,28,13,38,10.40
2018,03,28,13,39,10.40
2018,03,28,13,40,10.40
2018,03,28,13,41,10.40
2018,03,28,13,42,10.40
2018,03,28,13,43,10.40
2018,03,28,13,44,10.40
2018,03,28,13,45,10.40
2018,03,28,13,46,10.40
2018,03,28,13,47,10.30
2018,03,28,13,48,10.30
2018,03,28,13,49,10.30
2018,03,28,13,50,10.30
2018,03,28,13,51,10.30
2018,03,28,13,52,10.30
2018,03,28,13,53,10.30
2018,03,28,13,54,10.20
2018,03,28,13,55,10.20
2018,03,28,13,56,10.10
2018,03,28,13,57,10.10
2018,03,28,13,58,9.90
2018,03,28,13,59,9.90
2018,03,28,14,00,9.90
2018,03,28,14,01,9.80
2018,03,28,14,02,9.80
2018,03,28,14,03,9.80
2018,03,28,14,04,9.80
2018,03,28,14,05,9.80
2018,03,28,14,06,9.70
2018,03,28,14,07,9.70
2018,03,28,14,08,9.70
2018,03,28,14,09,9.70
2018,03,28,14,10,9.70
2018,03,28,14,11,9.60
2018,03,28,14,12,9.60
2018,03,28,14,13,9.50
2018,03,28,14,14,9.50
2018,03,28,14,15,9.50
2018,03,28,14,16,9.50
2018,03,28,14,17,9.50
2018,03,28,14,18,9.50
2018,03,28,14,19,9.50
2018,03,28,14,20,9.50
2018,03,28,14,21,9.50
2018,03,28,14,22,9.50
2018,03,28,14,23,9.50
2018,03,28,14,24,9.50
2018,03,28,14,25,9.50
2018,03,28,14,26,9.50
2018,03,28,14,27,9.50
2018,03,28,14,28,9.50
2018,03,28,14,29,9.40
2018,03,28,14,30,9.40
2018,03,28,14,31,9.40
2018,03,28,14,32,9.40
2018,03,28,14,33,9.40
2018,03,28,14,34,9.40
2018,03,28,14,35,9.40
2018,03,28,14,36,9.40
2018,03,28,14,37,9.40
2018,03,28,14,38,9.50
2018,03,28,14,39,9.50
2018,03,28,14,40,9.50
2018,03,28,14,41,9.60
2018,03,28,14,42,9.60
2018,03,28,14,43,9.70
2018,03,28,14,44,9.70
2018,03,28,14,45,9.70
2018,03,28,14,46,9.80
2018,03,28,14,47,9.80
2018,03,28,14,48,9.80
2018,03,28,14,49,9.80
2018,03,28,14,50,9.70
2018,03,28,14,51,9.70
2018,03,28,14,52,9.70
2018,03,28,14,53,9.70
2018,03,28,14,54,9.70
2018,03,28,14,55,9.60
2018,03,28,14,56,9.70
2018,03,28,14,57,9.60
2018,03,28,14,58,9.60
2018,03,28,14,59,9.60
2018,03,28,15,00,9.60
2018,03,28,15,01,9.60
2018,03,28,15,02,9.60
2018,03,28,15,03,9.60
2018,03,28,15,04,9.60
2018,03,28,15,05,9.60
2018,03,28,15,06,9.60
2018,03,28,15,07,9.60
2018,03,28,15,08,9.50
2018,03,28,15,09,9.40
2018,03,28,15,10,9.40
2018,03,28,15,11,9.30
2018,03,28,15,12,9.30
2018,03,28,15,13,9.20
2018,03,28,15,14,9.20
2018,03,28,15,15,9.20
2018,03,28,15,16,9.20
2018,03,28,15,17,9.20
2018,03,28,15,18,9.20
2018,03,28,15,19,9.20
2018,03,28,15,20,9.20
2018,03,28,15,21,9.20
2018,03,28,15,22,9.20
2018,03,28,15,23,9.30
2018,03,28,15,24,9.30
2018,03,28,15,25,9.40
2018,03,28,15,26,9.50
2018,03,28,15,27,9.50
2018,03,28,15,28,9.50
2018,03,28,15,29,9.60
2018,03,28,15,30,9.60
2018,03,28,15,31,9.60
2018,03,28,15,32,9.60
2018,03,28,15,33,9.60
2018,03,28,15,34,9.60
2018,03,28,15,35,9.50
2018,03,28,15,36,9.60
2018,03,28,15,37,9.50
2018,03,28,15,38,9.60
2018,03,28,15,39,9.60
2018,03,28,15,40,9.60
2018,03,28,15,41,9.60
2018,03,28,15,42,9.60
2018,03,28,15,43,9.70
2018,03,28,15,44,9.70
2018,03,28,15,45,9.70
2018,03,28,15,46,9.70
2018,03,28,15,47,9.70
2018,03,28,15,48,9.70
2018,03,28,15,49,9.70
2018,03,28,15,50,9.80
2018,03,28,15,51,9.80
2018,03,28,15,52,9.80
2018,03,28,15,53,9.70
2018,03,28,15,54,9.70
2018,03,28,15,55,9.70
2018,03,28,15,56,9.70
2018,03,28,15,57,9.70
2018,03,28,15,58,9.70
2018,03,28,15,59,9.70
2018,03,28,16,00,9.70
2018,03,28,16,01,9.70
2018,03,28,16,02,9.60
2018,03,28,16,03,9.60
2018,03,28,16,04,9.60
2018,03,28,16,05,9.60
2018,03,28,16,06,9.60
2018,03,28,16,07,9.60
2018,03,28,16,08,9.60
2018,03,28,16,09,9.60
2018,03,28,16,10,9.60
2018,03,28,16,11,9.60
2018,03,28,16,12,9.60
2018,03,28,16,13,9.60
2018,03,28,16,14,9.60
2018,03,28,16,15,9.60
2018,03,28,16,16,9.60
2018,03,28,16,17,9.60
2018,03,28,16,18,9.60
2018,03,28,16,19,9.60
2018,03,28,16,20,9.70
2018,03,28,16,21,9.70
2018,03,28,16,22,9.70
2018,03,28,16,23,9.70
2018,03,28,16,24,9.70
2018,03,28,16,25,9.70
2018,03,28,16,26,9.70
2018,03,28,16,27,9.70
2018,03,28,16,28,9.70
2018,03,28,16,29,9.60
2018,03,28,16,30,9.70
2018,03,28,16,31,9.70
2018,03,28,16,32,9.70
2018,03,28,16,33,9.70
2018,03,28,16,34,9.70
2018,03,28,16,35,9.70
2018,03,28,16,36,9.70
2018,03,28,16,37,9.70
2018,03,28,16,38,9.60
2018,03,28,16,39,9.60
2018,03,28,16,40,9.60
2018,03,28,16,41,9.60
2018,03,28,16,42,9.60
2018,03,28,16,43,9.60
2018,03,28,16,44,9.60
2018,03,28,16,45,9.60
2018,03,28,16,46,9.50
2018,03,28,16,47,9.50
2018,03,28,16,48,9.50
2018,03,28,16,49,9.50
2018,03,28,16,50,9.40
2018,03,28,16,51,9.40
2018,03,28,16,52,9.40
2018,03,28,16,53,9.40
2018,03,28,16,54,9.30
2018,03,28,16,55,9.30
2018,03,28,16,56,9.30
2018,03,28,16,57,9.30
2018,03,28,16,58,9.30
2018,03,28,16,59,9.30
2018,03,28,17,00,9.30
2018,03,28,17,01,9.30
2018,03,28,17,02,9.30
2018,03,28,17,03,9.30
2018,03,28,17,04,9.30
2018,03,28,17,05,9.30
2018,03,28,17,06,9.30
2018,03,28,17,07,9.30
2018,03,28,17,08,9.30
2018,03,28,17,09,9.40
2018,03,28,17,10,9.40
2018,03,28,17,11,9.40
2018,03,28,17,12,9.40
2018,03,28,17,13,9.50
2018,03,28,17,14,9.50
2018,03,28,17,15,9.50
2018,03,28,17,16,9.50
2018,03,28,17,17,9.50
2018,03,28,17,18,9.50
2018,03,28,17,19,9.50
2018,03,28,17,20,9.50
2018,03,28,17,21,9.40
2018,03,28,17,22,9.40
2018,03,28,17,23,9.40
2018,03,28,17,24,9.40
2018,03,28,17,25,9.40
2018,03,28,17,26,9.40
2018,03,28,17,27,9.40
2018,03,28,17,28,9.40
2018,03,28,17,29,9.40
2018,03,28,17,30,9.40
2018,03,28,17,31,9.40
2018,03,28,17,32,9.40
2018,03,28,17,33,9.40
2018,03,28,17,34,9.40
2018,03,28,17,35,9.40
2018,03,28,17,36,9.30
2018,03,28,17,37,9.30
2018,03,28,17,38,9.30
2018,03,28,17,39,9.30
2018,03,28,17,40,9.30
2018,03,28,17,41,9.30
2018,03,28,17,42,9.30
2018,03,28,17,43,9.30
2018,03,28,17,44,9.30
2018,03,28,17,45,9.20
2018,03,28,17,46,9.20
2018,03,28,17,47,9.20
2018,03,28,17,48,9.20
2018,03,28,17,49,9.20
2018,03,28,17,50,9.20
2018,03,28,17,51,9.20
2018,03,28,17,52,9.20
2018,03,28,17,53,9.20
2018,03,28,17,54,9.20
2018,03,28,17,55,9.20
2018,03,28,17,56,9.20
2018,03,28,17,57,9.20
2018,03,28,17,58,9.20
2018,03,28,17,59,9.20
2018,03,28,18,00,9.20
2018,03,28,18,01,9.20
2018,03,28,18,02,9.20